,,PressureMeas_1m,,PRMeasQMR101_1,,RHStat155_1m_1,,SRMeasQMS101R_1m,,TAStat155_1m_1,,GenWind_1,,GenWind_1,
2019-09-11, 00:00:06,VALID,920.603,VALID,0.0,VALID,99.349,VALID,0.008,VALID,19.427,INVALID,360.0,VALID,0.0,
2019-09-11, 00:01:06,VALID,920.598,VALID,0.0,VALID,99.343,VALID,0.003,VALID,19.383,INVALID,360.0,VALID,0.0,
2019-09-11, 00:02:06,VALID,920.601,VALID,0.0,VALID,99.356,VALID,0.007,VALID,19.371,INVALID,360.0,VALID,0.0,
2019-09-11, 00:03:06,VALID,920.612,VALID,0.0,VALID,99.347,VALID,0.011,VALID,19.329,INVALID,360.0,VALID,0.0,
2019-09-11, 00:04:06,VALID,920.602,VALID,0.0,VALID,99.223,VALID,-0.003,VALID,19.218,INVALID,360.0,VALID,0.0,
2019-09-11, 00:05:06,VALID,920.611,VALID,0.0,VALID,99.158,VALID,-0.008,VALID,19.119,INVALID,360.0,VALID,0.0,
2019-09-11, 00:06:06,VALID,920.594,VALID,0.0,VALID,99.174,VALID,-0.011,VALID,19.062,INVALID,360.0,VALID,0.0,
2019-09-11, 00:07:06,VALID,920.596,VALID,0.0,VALID,99.191,VALID,-0.023,VALID,19.067,INVALID,360.0,VALID,0.0,
2019-09-11, 00:08:06,VALID,920.583,VALID,0.0,VALID,99.295,VALID,-0.009,VALID,19.116,INVALID,360.0,VALID,0.0,
2019-09-11, 00:09:06,VALID,920.584,VALID,0.0,VALID,99.285,VALID,-0.02,VALID,19.102,INVALID,360.0,VALID,0.0,
2019-09-11, 00:10:06,VALID,920.577,VALID,0.0,VALID,99.333,VALID,-0.02,VALID,19.116,INVALID,360.0,VALID,0.0,
2019-09-11, 00:11:06,VALID,920.567,VALID,0.0,VALID,99.397,VALID,-0.022,VALID,19.145,INVALID,360.0,VALID,0.0,
2019-09-11, 00:12:06,VALID,920.562,VALID,0.0,VALID,99.402,VALID,-0.014,VALID,19.13,INVALID,360.0,VALID,0.0,
2019-09-11, 00:13:06,VALID,920.554,VALID,0.0,VALID,99.429,VALID,-0.007,VALID,19.127,INVALID,360.0,VALID,0.0,
2019-09-11, 00:14:06,VALID,920.521,VALID,0.0,VALID,99.448,VALID,-0.007,VALID,19.121,INVALID,360.0,VALID,0.0,
2019-09-11, 00:15:06,VALID,920.526,VALID,0.0,VALID,99.44,VALID,-0.023,VALID,19.063,INVALID,360.0,VALID,0.0,
2019-09-11, 00:16:06,VALID,920.531,VALID,0.0,VALID,99.426,VALID,-0.02,VALID,19.031,INVALID,360.0,VALID,0.0,
2019-09-11, 00:17:06,VALID,920.497,VALID,0.0,VALID,99.473,VALID,-0.021,VALID,19.049,INVALID,360.0,VALID,0.0,
2019-09-11, 00:18:06,VALID,920.464,VALID,0.0,VALID,99.523,VALID,-0.032,VALID,19.099,INVALID,360.0,VALID,0.0,
2019-09-11, 00:19:06,VALID,920.446,VALID,0.0,VALID,99.624,VALID,-0.023,VALID,19.208,INVALID,360.0,VALID,0.0,
2019-09-11, 00:20:06,VALID,920.433,VALID,0.0,VALID,99.638,VALID,-0.003,VALID,19.213,INVALID,360.0,VALID,0.0,
2019-09-11, 00:21:06,VALID,920.42,VALID,0.0,VALID,99.601,VALID,-0.01,VALID,19.156,INVALID,360.0,VALID,0.0,
2019-09-11, 00:22:06,VALID,920.423,VALID,0.0,VALID,99.632,VALID,0.001,VALID,19.15,INVALID,360.0,VALID,0.0,
2019-09-11, 00:23:06,VALID,920.423,VALID,0.0,VALID,99.64,VALID,0.012,VALID,19.204,INVALID,360.0,VALID,0.0,
2019-09-11, 00:24:06,VALID,920.433,VALID,0.0,VALID,99.666,VALID,-0.002,VALID,19.245,INVALID,360.0,VALID,0.0,
2019-09-11, 00:25:06,VALID,920.411,VALID,0.0,VALID,99.686,VALID,0.001,VALID,19.275,INVALID,360.0,VALID,0.0,
2019-09-11, 00:26:06,VALID,920.404,VALID,0.0,VALID,99.745,VALID,0.002,VALID,19.363,INVALID,360.0,VALID,0.0,
2019-09-11, 00:27:06,VALID,920.392,VALID,0.0,VALID,99.752,VALID,-0.003,VALID,19.369,INVALID,360.0,VALID,0.0,
2019-09-11, 00:28:06,VALID,920.36,VALID,0.0,VALID,99.74,VALID,0.008,VALID,19.361,INVALID,360.0,VALID,0.0,
2019-09-11, 00:29:06,VALID,920.308,VALID,0.0,VALID,99.74,VALID,0.002,VALID,19.321,INVALID,360.0,VALID,0.0,
2019-09-11, 00:30:06,VALID,920.293,VALID,0.0,VALID,99.734,VALID,-0.003,VALID,19.219,INVALID,360.0,VALID,0.0,
2019-09-11, 00:31:06,VALID,920.261,VALID,0.0,VALID,99.719,VALID,-0.018,VALID,19.169,INVALID,360.0,VALID,0.0,
2019-09-11, 00:32:06,VALID,920.262,VALID,0.0,VALID,99.722,VALID,0.008,VALID,19.176,INVALID,360.0,VALID,0.0,
2019-09-11, 00:33:06,VALID,920.267,VALID,0.0,VALID,99.736,VALID,0.011,VALID,19.22,INVALID,360.0,VALID,0.0,
2019-09-11, 00:34:06,VALID,920.265,VALID,0.0,VALID,99.745,VALID,-0.007,VALID,19.219,VALID,58.0,VALID,0.0,
2019-09-11, 00:35:06,VALID,920.269,VALID,0.0,VALID,99.743,VALID,-0.002,VALID,19.258,INVALID,360.0,VALID,0.0,
2019-09-11, 00:36:06,VALID,920.256,VALID,0.0,VALID,99.767,VALID,-0.008,VALID,19.312,VALID,58.0,VALID,0.0,
2019-09-11, 00:37:06,VALID,920.247,VALID,0.0,VALID,99.755,VALID,0.004,VALID,19.297,INVALID,360.0,VALID,0.0,
2019-09-11, 00:38:06,VALID,920.24,VALID,0.0,VALID,99.756,VALID,0.008,VALID,19.294,INVALID,360.0,VALID,0.0,
2019-09-11, 00:39:06,VALID,920.244,VALID,0.0,VALID,99.747,VALID,0.021,VALID,19.217,INVALID,360.0,VALID,0.0,
2019-09-11, 00:40:06,VALID,920.232,VALID,0.0,VALID,99.74,VALID,-0.0,VALID,19.159,INVALID,360.0,VALID,0.0,
2019-09-11, 00:41:06,VALID,920.237,VALID,0.0,VALID,99.779,VALID,0.009,VALID,19.18,INVALID,360.0,VALID,0.0,
2019-09-11, 00:42:06,VALID,920.219,VALID,0.0,VALID,99.759,VALID,0.009,VALID,19.169,INVALID,360.0,VALID,0.0,
2019-09-11, 00:43:06,VALID,920.196,VALID,0.0,VALID,99.794,VALID,-0.001,VALID,19.268,INVALID,360.0,VALID,0.0,
2019-09-11, 00:44:06,VALID,920.168,VALID,0.0,VALID,99.806,VALID,0.002,VALID,19.312,INVALID,360.0,VALID,0.0,
2019-09-11, 00:45:06,VALID,920.148,VALID,0.0,VALID,99.794,VALID,0.002,VALID,19.289,INVALID,360.0,VALID,0.0,
2019-09-11, 00:46:06,VALID,920.123,VALID,0.0,VALID,99.792,VALID,-0.001,VALID,19.281,INVALID,360.0,VALID,0.0,
2019-09-11, 00:47:06,VALID,920.119,VALID,0.0,VALID,99.789,VALID,-0.007,VALID,19.259,INVALID,360.0,VALID,0.0,
2019-09-11, 00:48:06,VALID,920.121,VALID,0.0,VALID,99.822,VALID,0.005,VALID,19.322,INVALID,360.0,VALID,0.0,
2019-09-11, 00:49:06,VALID,920.096,VALID,0.0,VALID,99.827,VALID,-0.006,VALID,19.393,INVALID,360.0,VALID,0.0,
2019-09-11, 00:50:06,VALID,920.091,VALID,0.0,VALID,99.826,VALID,-0.008,VALID,19.426,INVALID,360.0,VALID,0.0,
2019-09-11, 00:51:06,VALID,920.092,VALID,0.0,VALID,99.823,VALID,-0.004,VALID,19.442,INVALID,360.0,VALID,0.0,
2019-09-11, 00:52:06,VALID,920.07,VALID,0.0,VALID,99.845,VALID,-0.003,VALID,19.465,INVALID,360.0,VALID,0.0,
2019-09-11, 00:53:06,VALID,920.077,VALID,0.0,VALID,99.851,VALID,-0.006,VALID,19.467,INVALID,360.0,VALID,0.0,
2019-09-11, 00:54:06,VALID,920.068,VALID,0.0,VALID,99.882,VALID,-0.02,VALID,19.483,INVALID,360.0,VALID,0.0,
2019-09-11, 00:55:06,VALID,920.075,VALID,0.0,VALID,99.867,VALID,-0.01,VALID,19.475,INVALID,360.0,VALID,0.0,
2019-09-11, 00:56:06,VALID,920.058,VALID,0.0,VALID,99.881,VALID,-0.009,VALID,19.453,INVALID,360.0,VALID,0.0,
2019-09-11, 00:57:06,VALID,920.056,VALID,0.0,VALID,99.893,VALID,-0.003,VALID,19.42,INVALID,360.0,VALID,0.0,
2019-09-11, 00:58:06,VALID,920.027,VALID,0.0,VALID,99.898,VALID,-0.004,VALID,19.399,INVALID,360.0,VALID,0.0,
2019-09-11, 00:59:06,VALID,920.016,VALID,0.0,VALID,99.9,VALID,-0.014,VALID,19.377,INVALID,360.0,VALID,0.0,
2019-09-11, 01:00:06,VALID,919.99,VALID,0.0,VALID,99.901,VALID,0.001,VALID,19.383,INVALID,360.0,VALID,0.0,
2019-09-11, 01:01:06,VALID,919.978,VALID,0.0,VALID,99.903,VALID,-0.006,VALID,19.408,INVALID,360.0,VALID,0.0,
2019-09-11, 01:02:06,VALID,919.95,VALID,0.0,VALID,99.911,VALID,-0.002,VALID,19.421,INVALID,360.0,VALID,0.0,
2019-09-11, 01:03:06,VALID,919.933,VALID,0.0,VALID,99.91,VALID,-0.007,VALID,19.443,INVALID,360.0,VALID,0.0,
2019-09-11, 01:04:06,VALID,919.932,VALID,0.0,VALID,99.909,VALID,-0.006,VALID,19.458,INVALID,360.0,VALID,0.0,
2019-09-11, 01:05:06,VALID,919.919,VALID,0.0,VALID,99.912,VALID,-0.008,VALID,19.473,INVALID,360.0,VALID,0.0,
2019-09-11, 01:06:06,VALID,919.926,VALID,0.0,VALID,99.912,VALID,-0.028,VALID,19.457,INVALID,360.0,VALID,0.0,
2019-09-11, 01:07:06,VALID,919.917,VALID,0.0,VALID,99.904,VALID,-0.02,VALID,19.38,INVALID,360.0,VALID,0.0,
2019-09-11, 01:08:06,VALID,919.933,VALID,0.0,VALID,99.877,VALID,-0.009,VALID,19.142,INVALID,360.0,VALID,0.0,
2019-09-11, 01:09:06,VALID,919.952,VALID,0.0,VALID,99.862,VALID,-0.011,VALID,19.023,INVALID,360.0,VALID,0.0,
2019-09-11, 01:10:06,VALID,919.957,VALID,0.0,VALID,99.891,VALID,-0.008,VALID,19.091,INVALID,360.0,VALID,0.0,
2019-09-11, 01:11:06,VALID,919.976,VALID,0.0,VALID,99.908,VALID,-0.016,VALID,19.103,INVALID,360.0,VALID,0.0,
2019-09-11, 01:12:06,VALID,919.969,VALID,0.0,VALID,99.912,VALID,-0.009,VALID,19.09,INVALID,360.0,VALID,0.0,
2019-09-11, 01:13:06,VALID,919.981,VALID,0.0,VALID,99.904,VALID,-0.026,VALID,19.087,INVALID,360.0,VALID,0.0,
2019-09-11, 01:14:06,VALID,919.97,VALID,0.0,VALID,99.909,VALID,-0.015,VALID,19.053,INVALID,360.0,VALID,0.0,
2019-09-11, 01:15:06,VALID,919.975,VALID,0.0,VALID,99.906,VALID,-0.028,VALID,19.069,INVALID,360.0,VALID,0.0,
2019-09-11, 01:16:06,VALID,919.973,VALID,0.0,VALID,99.91,VALID,-0.007,VALID,19.116,INVALID,360.0,VALID,0.0,
2019-09-11, 01:17:06,VALID,919.965,VALID,0.0,VALID,99.904,VALID,-0.018,VALID,19.122,INVALID,360.0,VALID,0.0,
2019-09-11, 01:18:06,VALID,919.955,VALID,0.0,VALID,99.911,VALID,-0.011,VALID,19.108,INVALID,360.0,VALID,0.0,
2019-09-11, 01:19:06,VALID,919.943,VALID,0.0,VALID,99.909,VALID,-0.016,VALID,19.119,INVALID,360.0,VALID,0.0,
2019-09-11, 01:20:06,VALID,919.936,VALID,0.0,VALID,99.908,VALID,-0.009,VALID,19.065,INVALID,360.0,VALID,0.0,
2019-09-11, 01:21:06,VALID,919.924,VALID,0.0,VALID,99.893,VALID,-0.02,VALID,19.0,INVALID,360.0,VALID,0.0,
2019-09-11, 01:22:06,VALID,919.905,VALID,0.0,VALID,99.889,VALID,-0.021,VALID,18.953,INVALID,360.0,VALID,0.0,
2019-09-11, 01:23:06,VALID,919.87,VALID,0.0,VALID,99.9,VALID,-0.022,VALID,19.036,INVALID,360.0,VALID,0.0,
2019-09-11, 01:24:06,VALID,919.829,VALID,0.0,VALID,99.908,VALID,-0.042,VALID,19.18,INVALID,360.0,VALID,0.0,
2019-09-11, 01:25:06,VALID,919.801,VALID,0.0,VALID,99.908,VALID,-0.023,VALID,19.279,INVALID,360.0,VALID,0.0,
2019-09-11, 01:26:06,VALID,919.772,VALID,0.0,VALID,99.907,VALID,-0.011,VALID,19.312,INVALID,360.0,VALID,0.0,
2019-09-11, 01:27:06,VALID,919.767,VALID,0.0,VALID,99.913,VALID,-0.022,VALID,19.308,INVALID,360.0,VALID,0.0,
2019-09-11, 01:28:06,VALID,919.784,VALID,0.0,VALID,99.911,VALID,-0.026,VALID,19.269,INVALID,360.0,VALID,0.0,
2019-09-11, 01:29:06,VALID,919.767,VALID,0.0,VALID,99.91,VALID,-0.035,VALID,19.254,INVALID,360.0,VALID,0.0,
2019-09-11, 01:30:06,VALID,919.805,VALID,0.0,VALID,99.91,VALID,-0.041,VALID,19.258,INVALID,360.0,VALID,0.0,
2019-09-11, 01:31:06,VALID,919.801,VALID,0.0,VALID,99.909,VALID,-0.034,VALID,19.262,INVALID,360.0,VALID,0.0,
2019-09-11, 01:32:06,VALID,919.813,VALID,0.0,VALID,99.909,VALID,-0.013,VALID,19.236,INVALID,360.0,VALID,0.0,
2019-09-11, 01:33:06,VALID,919.813,VALID,0.0,VALID,99.913,VALID,-0.029,VALID,19.233,INVALID,360.0,VALID,0.0,
2019-09-11, 01:34:06,VALID,919.784,VALID,0.0,VALID,99.908,VALID,-0.036,VALID,19.263,INVALID,360.0,VALID,0.0,
2019-09-11, 01:35:06,VALID,919.787,VALID,0.0,VALID,99.909,VALID,-0.008,VALID,19.268,INVALID,360.0,VALID,0.0,
2019-09-11, 01:36:06,VALID,919.78,VALID,0.0,VALID,99.909,VALID,-0.005,VALID,19.277,INVALID,360.0,VALID,0.0,
2019-09-11, 01:37:06,VALID,919.758,VALID,0.0,VALID,99.91,VALID,-0.016,VALID,19.278,INVALID,360.0,VALID,0.0,
2019-09-11, 01:38:06,VALID,919.766,VALID,0.0,VALID,99.908,VALID,-0.008,VALID,19.215,INVALID,360.0,VALID,0.0,
2019-09-11, 01:39:06,VALID,919.735,VALID,0.0,VALID,99.909,VALID,-0.027,VALID,19.186,INVALID,360.0,VALID,0.0,
2019-09-11, 01:40:06,VALID,919.713,VALID,0.0,VALID,99.911,VALID,-0.01,VALID,19.157,INVALID,360.0,VALID,0.0,
2019-09-11, 01:41:06,VALID,919.689,VALID,0.0,VALID,99.914,VALID,-0.015,VALID,19.104,INVALID,360.0,VALID,0.0,
2019-09-11, 01:42:06,VALID,919.65,VALID,0.0,VALID,99.911,VALID,-0.022,VALID,19.025,VALID,54.0,VALID,0.0,
2019-09-11, 01:43:06,VALID,919.651,VALID,0.0,VALID,99.905,VALID,-0.016,VALID,18.963,INVALID,360.0,VALID,0.0,
2019-09-11, 01:44:06,VALID,919.66,VALID,0.0,VALID,99.903,VALID,-0.035,VALID,18.941,INVALID,360.0,VALID,0.0,
2019-09-11, 01:45:06,VALID,919.656,VALID,0.0,VALID,99.91,VALID,-0.019,VALID,18.956,INVALID,360.0,VALID,0.0,
2019-09-11, 01:46:06,VALID,919.639,VALID,0.0,VALID,99.897,VALID,-0.014,VALID,18.962,INVALID,360.0,VALID,0.0,
2019-09-11, 01:47:06,VALID,919.629,VALID,0.0,VALID,99.904,VALID,-0.008,VALID,18.954,INVALID,360.0,VALID,0.0,
2019-09-11, 01:48:06,VALID,919.627,VALID,0.0,VALID,99.91,VALID,-0.008,VALID,18.94,INVALID,360.0,VALID,0.0,
2019-09-11, 01:49:06,VALID,919.614,VALID,0.0,VALID,99.897,VALID,0.011,VALID,18.974,INVALID,360.0,VALID,0.0,
2019-09-11, 01:50:06,VALID,919.598,VALID,0.0,VALID,99.907,VALID,-0.003,VALID,19.012,INVALID,360.0,VALID,0.0,
2019-09-11, 01:51:06,VALID,919.591,VALID,0.0,VALID,99.91,VALID,-0.025,VALID,19.04,INVALID,360.0,VALID,0.0,
2019-09-11, 01:52:06,VALID,919.568,VALID,0.0,VALID,99.908,VALID,-0.013,VALID,19.002,VALID,53.0,VALID,0.0,
2019-09-11, 01:53:06,VALID,919.53,VALID,0.0,VALID,99.895,VALID,-0.018,VALID,18.971,INVALID,360.0,VALID,0.0,
2019-09-11, 01:54:06,VALID,919.537,VALID,0.0,VALID,99.908,VALID,-0.025,VALID,19.041,INVALID,360.0,VALID,0.0,
2019-09-11, 01:55:06,VALID,919.515,VALID,0.0,VALID,99.904,VALID,-0.017,VALID,19.115,INVALID,360.0,VALID,0.0,
2019-09-11, 01:56:06,VALID,919.504,VALID,0.0,VALID,99.91,VALID,-0.016,VALID,19.165,INVALID,360.0,VALID,0.0,
2019-09-11, 01:57:06,VALID,919.513,VALID,0.0,VALID,99.907,VALID,-0.014,VALID,19.198,INVALID,360.0,VALID,0.0,
2019-09-11, 01:58:06,VALID,919.503,VALID,0.0,VALID,99.908,VALID,-0.007,VALID,19.21,INVALID,360.0,VALID,0.0,
2019-09-11, 01:59:06,VALID,919.5,VALID,0.0,VALID,99.911,VALID,-0.036,VALID,19.208,INVALID,360.0,VALID,0.0,
2019-09-11, 02:00:06,VALID,919.498,VALID,0.0,VALID,99.908,VALID,-0.035,VALID,19.228,INVALID,360.0,VALID,0.0,
2019-09-11, 02:01:06,VALID,919.507,VALID,0.0,VALID,99.912,VALID,-0.021,VALID,19.246,INVALID,360.0,VALID,0.0,
2019-09-11, 02:02:06,VALID,919.488,VALID,0.0,VALID,99.911,VALID,-0.04,VALID,19.256,INVALID,360.0,VALID,0.0,
2019-09-11, 02:03:06,VALID,919.497,VALID,0.0,VALID,99.908,VALID,-0.036,VALID,19.215,INVALID,360.0,VALID,0.0,
2019-09-11, 02:04:06,VALID,919.527,VALID,0.0,VALID,99.912,VALID,-0.037,VALID,19.169,INVALID,360.0,VALID,0.0,
2019-09-11, 02:05:06,VALID,919.523,VALID,0.0,VALID,99.91,VALID,-0.034,VALID,19.12,INVALID,360.0,VALID,0.0,
2019-09-11, 02:06:06,VALID,919.518,VALID,0.0,VALID,99.911,VALID,-0.036,VALID,19.05,INVALID,360.0,VALID,0.0,
2019-09-11, 02:07:06,VALID,919.51,VALID,0.0,VALID,99.908,VALID,-0.045,VALID,19.063,INVALID,360.0,VALID,0.0,
2019-09-11, 02:08:06,VALID,919.481,VALID,0.0,VALID,99.909,VALID,-0.038,VALID,19.121,INVALID,360.0,VALID,0.0,
2019-09-11, 02:09:06,VALID,919.479,VALID,0.0,VALID,99.909,VALID,-0.037,VALID,19.149,INVALID,360.0,VALID,0.0,
2019-09-11, 02:10:06,VALID,919.484,VALID,0.0,VALID,99.907,VALID,-0.026,VALID,19.182,INVALID,360.0,VALID,0.0,
2019-09-11, 02:11:06,VALID,919.492,VALID,0.0,VALID,99.909,VALID,-0.034,VALID,19.206,INVALID,360.0,VALID,0.0,
2019-09-11, 02:12:06,VALID,919.495,VALID,0.0,VALID,99.909,VALID,-0.046,VALID,19.227,INVALID,360.0,VALID,0.0,
2019-09-11, 02:13:06,VALID,919.523,VALID,0.0,VALID,99.909,VALID,-0.054,VALID,19.266,INVALID,360.0,VALID,0.0,
2019-09-11, 02:14:06,VALID,919.553,VALID,0.0,VALID,99.909,VALID,-0.053,VALID,19.236,INVALID,360.0,VALID,0.0,
2019-09-11, 02:15:06,VALID,919.566,VALID,0.0,VALID,99.909,VALID,-0.036,VALID,19.225,INVALID,360.0,VALID,0.0,
2019-09-11, 02:16:06,VALID,919.584,VALID,0.0,VALID,99.91,VALID,-0.048,VALID,19.243,INVALID,360.0,VALID,0.0,
2019-09-11, 02:17:06,VALID,919.57,VALID,0.0,VALID,99.909,VALID,-0.02,VALID,19.254,INVALID,360.0,VALID,0.0,
2019-09-11, 02:18:06,VALID,919.57,VALID,0.0,VALID,99.91,VALID,-0.035,VALID,19.239,INVALID,360.0,VALID,0.0,
2019-09-11, 02:19:06,VALID,919.561,VALID,0.0,VALID,99.909,VALID,-0.028,VALID,19.261,INVALID,360.0,VALID,0.0,
2019-09-11, 02:20:06,VALID,919.553,VALID,0.0,VALID,99.911,VALID,-0.004,VALID,19.269,INVALID,360.0,VALID,0.0,
2019-09-11, 02:21:06,VALID,919.527,VALID,0.0,VALID,99.91,VALID,-0.022,VALID,19.261,INVALID,360.0,VALID,0.0,
2019-09-11, 02:22:06,VALID,919.53,VALID,0.0,VALID,99.909,VALID,-0.011,VALID,19.263,INVALID,360.0,VALID,0.0,
2019-09-11, 02:23:06,VALID,919.54,VALID,0.0,VALID,99.908,VALID,-0.027,VALID,19.262,INVALID,360.0,VALID,0.0,
2019-09-11, 02:24:06,VALID,919.554,VALID,0.0,VALID,99.91,VALID,-0.027,VALID,19.243,INVALID,360.0,VALID,0.0,
2019-09-11, 02:25:06,VALID,919.546,VALID,0.0,VALID,99.911,VALID,-0.027,VALID,19.249,INVALID,360.0,VALID,0.0,
2019-09-11, 02:26:06,VALID,919.551,VALID,0.0,VALID,99.909,VALID,-0.014,VALID,19.249,INVALID,360.0,VALID,0.0,
2019-09-11, 02:27:06,VALID,919.533,VALID,0.0,VALID,99.91,VALID,-0.023,VALID,19.258,INVALID,360.0,VALID,0.0,
2019-09-11, 02:28:06,VALID,919.497,VALID,0.0,VALID,99.909,VALID,-0.013,VALID,19.244,INVALID,360.0,VALID,0.0,
2019-09-11, 02:29:06,VALID,919.469,VALID,0.0,VALID,99.91,VALID,-0.016,VALID,19.225,INVALID,360.0,VALID,0.0,
2019-09-11, 02:30:06,VALID,919.445,VALID,0.0,VALID,99.912,VALID,-0.024,VALID,19.228,INVALID,360.0,VALID,0.0,
2019-09-11, 02:31:06,VALID,919.437,VALID,0.0,VALID,99.91,VALID,-0.026,VALID,19.227,INVALID,360.0,VALID,0.0,
2019-09-11, 02:32:06,VALID,919.42,VALID,0.0,VALID,99.909,VALID,-0.029,VALID,19.207,INVALID,360.0,VALID,0.0,
2019-09-11, 02:33:06,VALID,919.431,VALID,0.0,VALID,99.909,VALID,-0.036,VALID,19.181,INVALID,360.0,VALID,0.0,
2019-09-11, 02:34:06,VALID,919.402,VALID,0.0,VALID,99.912,VALID,-0.016,VALID,19.17,INVALID,360.0,VALID,0.0,
2019-09-11, 02:35:06,VALID,919.403,VALID,0.0,VALID,99.91,VALID,0.006,VALID,19.154,INVALID,360.0,VALID,0.0,
2019-09-11, 02:36:06,VALID,919.403,VALID,0.0,VALID,99.912,VALID,0.003,VALID,19.135,INVALID,360.0,VALID,0.0,
2019-09-11, 02:37:06,VALID,919.379,VALID,0.0,VALID,99.913,VALID,0.005,VALID,19.106,INVALID,360.0,VALID,0.0,
2019-09-11, 02:38:06,VALID,919.369,VALID,0.0,VALID,99.911,VALID,-0.018,VALID,19.119,INVALID,360.0,VALID,0.0,
2019-09-11, 02:39:06,VALID,919.368,VALID,0.0,VALID,99.91,VALID,-0.009,VALID,19.115,INVALID,360.0,VALID,0.0,
2019-09-11, 02:40:06,VALID,919.36,VALID,0.0,VALID,99.91,VALID,0.019,VALID,19.083,INVALID,360.0,VALID,0.0,
2019-09-11, 02:41:06,VALID,919.355,VALID,0.0,VALID,99.911,VALID,-0.004,VALID,19.049,INVALID,360.0,VALID,0.0,
2019-09-11, 02:42:06,VALID,919.336,VALID,0.0,VALID,99.909,VALID,-0.017,VALID,19.02,INVALID,360.0,VALID,0.0,
2019-09-11, 02:43:06,VALID,919.306,VALID,0.0,VALID,99.909,VALID,-0.011,VALID,19.019,INVALID,360.0,VALID,0.0,
2019-09-11, 02:44:06,VALID,919.283,VALID,0.0,VALID,99.91,VALID,-0.014,VALID,19.004,INVALID,360.0,VALID,0.0,
2019-09-11, 02:45:06,VALID,919.267,VALID,0.0,VALID,99.91,VALID,-0.014,VALID,18.959,INVALID,360.0,VALID,0.0,
2019-09-11, 02:46:06,VALID,919.257,VALID,0.0,VALID,99.912,VALID,-0.01,VALID,18.932,INVALID,360.0,VALID,0.0,
2019-09-11, 02:47:06,VALID,919.262,VALID,0.0,VALID,99.909,VALID,0.012,VALID,18.91,INVALID,360.0,VALID,0.0,
2019-09-11, 02:48:06,VALID,919.263,VALID,0.0,VALID,99.906,VALID,-0.001,VALID,18.916,INVALID,360.0,VALID,0.0,
2019-09-11, 02:49:06,VALID,919.25,VALID,0.0,VALID,99.91,VALID,-0.005,VALID,18.9,VALID,55.0,VALID,0.0,
2019-09-11, 02:50:06,VALID,919.265,VALID,0.0,VALID,99.908,VALID,-0.015,VALID,18.87,INVALID,360.0,VALID,0.0,
2019-09-11, 02:51:06,VALID,919.259,VALID,0.0,VALID,99.909,VALID,-0.007,VALID,18.86,INVALID,360.0,VALID,0.0,
2019-09-11, 02:52:06,VALID,919.267,VALID,0.0,VALID,99.907,VALID,-0.013,VALID,18.869,INVALID,360.0,VALID,0.0,
2019-09-11, 02:53:06,VALID,919.275,VALID,0.0,VALID,99.907,VALID,-0.01,VALID,18.901,INVALID,360.0,VALID,0.0,
2019-09-11, 02:54:06,VALID,919.253,VALID,0.0,VALID,99.91,VALID,-0.033,VALID,18.898,INVALID,360.0,VALID,0.0,
2019-09-11, 02:55:06,VALID,919.246,VALID,0.0,VALID,99.906,VALID,-0.017,VALID,18.903,INVALID,360.0,VALID,0.0,
2019-09-11, 02:56:06,VALID,919.241,VALID,0.0,VALID,99.908,VALID,0.001,VALID,18.898,INVALID,360.0,VALID,0.0,
2019-09-11, 02:57:06,VALID,919.231,VALID,0.0,VALID,99.909,VALID,-0.013,VALID,18.879,INVALID,360.0,VALID,0.0,
2019-09-11, 02:58:06,VALID,919.219,VALID,0.0,VALID,99.906,VALID,-0.039,VALID,18.878,INVALID,360.0,VALID,0.0,
2019-09-11, 02:59:06,VALID,919.197,VALID,0.0,VALID,99.907,VALID,-0.014,VALID,18.886,INVALID,360.0,VALID,0.0,
2019-09-11, 03:00:06,VALID,919.182,VALID,0.0,VALID,99.906,VALID,-0.007,VALID,18.887,INVALID,360.0,VALID,0.0,
2019-09-11, 03:01:06,VALID,919.177,VALID,0.0,VALID,99.905,VALID,0.001,VALID,18.866,INVALID,360.0,VALID,0.0,
2019-09-11, 03:02:06,VALID,919.165,VALID,0.0,VALID,99.907,VALID,-0.025,VALID,18.86,INVALID,360.0,VALID,0.0,
2019-09-11, 03:03:06,VALID,919.165,VALID,0.0,VALID,99.907,VALID,-0.018,VALID,18.842,INVALID,360.0,VALID,0.0,
2019-09-11, 03:04:06,VALID,919.155,VALID,0.0,VALID,99.909,VALID,-0.023,VALID,18.818,INVALID,360.0,VALID,0.0,
2019-09-11, 03:05:06,VALID,919.172,VALID,0.0,VALID,99.905,VALID,-0.012,VALID,18.794,INVALID,360.0,VALID,0.0,
2019-09-11, 03:06:06,VALID,919.162,VALID,0.0,VALID,99.909,VALID,-0.019,VALID,18.752,INVALID,360.0,VALID,0.0,
2019-09-11, 03:07:06,VALID,919.172,VALID,0.0,VALID,99.907,VALID,-0.015,VALID,18.757,INVALID,360.0,VALID,0.0,
2019-09-11, 03:08:06,VALID,919.155,VALID,0.0,VALID,99.91,VALID,0.01,VALID,18.768,INVALID,360.0,VALID,0.0,
2019-09-11, 03:09:06,VALID,919.16,VALID,0.0,VALID,99.908,VALID,0.019,VALID,18.763,INVALID,360.0,VALID,0.841,
2019-09-11, 03:10:06,VALID,919.159,VALID,0.0,VALID,99.908,VALID,0.015,VALID,18.752,VALID,65.0,VALID,1.182,
2019-09-11, 03:11:06,VALID,919.155,VALID,0.0,VALID,99.907,VALID,-0.014,VALID,18.752,VALID,60.0,VALID,0.856,
2019-09-11, 03:12:06,VALID,919.161,VALID,0.0,VALID,99.906,VALID,-0.022,VALID,18.731,VALID,59.0,VALID,0.701,
2019-09-11, 03:13:06,VALID,919.164,VALID,0.0,VALID,99.905,VALID,-0.03,VALID,18.696,INVALID,360.0,VALID,0.294,
2019-09-11, 03:14:06,VALID,919.172,VALID,0.0,VALID,99.905,VALID,-0.005,VALID,18.673,INVALID,360.0,VALID,0.581,
2019-09-11, 03:15:06,VALID,919.177,VALID,0.0,VALID,99.905,VALID,-0.028,VALID,18.666,INVALID,360.0,VALID,0.0,
2019-09-11, 03:16:06,VALID,919.194,VALID,0.0,VALID,99.908,VALID,-0.001,VALID,18.67,INVALID,360.0,VALID,0.0,
2019-09-11, 03:17:06,VALID,919.193,VALID,0.0,VALID,99.907,VALID,0.002,VALID,18.686,INVALID,360.0,VALID,0.0,
2019-09-11, 03:18:06,VALID,919.199,VALID,0.0,VALID,99.908,VALID,0.004,VALID,18.681,INVALID,360.0,VALID,0.0,
2019-09-11, 03:19:06,VALID,919.188,VALID,0.0,VALID,99.906,VALID,-0.017,VALID,18.686,INVALID,360.0,VALID,0.0,
2019-09-11, 03:20:06,VALID,919.208,VALID,0.0,VALID,99.906,VALID,-0.011,VALID,18.68,INVALID,360.0,VALID,0.0,
2019-09-11, 03:21:06,VALID,919.186,VALID,0.0,VALID,99.909,VALID,-0.01,VALID,18.677,INVALID,360.0,VALID,0.0,
2019-09-11, 03:22:06,VALID,919.167,VALID,0.0,VALID,99.906,VALID,-0.031,VALID,18.636,INVALID,360.0,VALID,0.0,
2019-09-11, 03:23:06,VALID,919.156,VALID,0.0,VALID,99.909,VALID,-0.006,VALID,18.641,INVALID,360.0,VALID,0.0,
2019-09-11, 03:24:06,VALID,919.14,VALID,0.0,VALID,99.906,VALID,-0.016,VALID,18.666,INVALID,360.0,VALID,0.0,
2019-09-11, 03:25:06,VALID,919.126,VALID,0.0,VALID,99.906,VALID,-0.01,VALID,18.634,INVALID,360.0,VALID,0.0,
2019-09-11, 03:26:06,VALID,919.126,VALID,0.0,VALID,99.905,VALID,-0.021,VALID,18.55,INVALID,360.0,VALID,0.0,
2019-09-11, 03:27:06,VALID,919.128,VALID,0.0,VALID,99.907,VALID,-0.004,VALID,18.459,INVALID,360.0,VALID,0.18,
2019-09-11, 03:28:06,VALID,919.119,VALID,0.0,VALID,99.905,VALID,0.008,VALID,18.444,VALID,52.0,VALID,1.62,
2019-09-11, 03:29:06,VALID,919.111,VALID,0.0,VALID,99.904,VALID,-0.009,VALID,18.417,VALID,54.0,VALID,1.462,
2019-09-11, 03:30:06,VALID,919.124,VALID,0.0,VALID,99.905,VALID,-0.031,VALID,18.392,INVALID,360.0,VALID,0.877,
2019-09-11, 03:31:06,VALID,919.106,VALID,0.0,VALID,99.903,VALID,-0.011,VALID,18.416,INVALID,360.0,VALID,0.219,
2019-09-11, 03:32:06,VALID,919.109,VALID,0.0,VALID,99.903,VALID,0.001,VALID,18.497,VALID,70.0,VALID,1.659,
2019-09-11, 03:33:06,VALID,919.115,VALID,0.0,VALID,99.906,VALID,0.014,VALID,18.585,INVALID,360.0,VALID,0.0,
2019-09-11, 03:34:06,VALID,919.113,VALID,0.0,VALID,99.904,VALID,0.016,VALID,18.66,INVALID,360.0,VALID,0.0,
2019-09-11, 03:35:06,VALID,919.126,VALID,0.0,VALID,99.906,VALID,-0.01,VALID,18.692,VALID,76.0,VALID,1.478,
2019-09-11, 03:36:06,VALID,919.138,VALID,0.0,VALID,99.905,VALID,-0.017,VALID,18.708,VALID,78.0,VALID,1.419,
2019-09-11, 03:37:06,VALID,919.133,VALID,0.0,VALID,99.903,VALID,0.013,VALID,18.744,INVALID,360.0,VALID,0.0,